Crescent City, CA

9:35 AM PDT on September 26, 2016 (GMT -0700)
McNamara

Weather History for KCEC - March, 2012

Change the Weather History Date:

Tuesday, March 13, 2012

  Actual Average Record
Temperature  
Mean Temperature 47 °F 48 °F  
Max Temperature 52 °F 55 °F 69 °F (2005)
Min Temperature 41 °F 42 °F 31 °F (1963)
Degree Days  
Heating Degree Days 18 17  
Month to date heating degree days 261 221  
Since 1 July heating degree days 3304 3394  
Cooling Degree Days 0 0  
Month to date cooling degree days 0 0  
Year to date cooling degree days 0 0  
Moisture  
Dew Point 40 °F    
Average Humidity 78    
Maximum Humidity 89    
Minimum Humidity 66    
Precipitation  
Precipitation 0.40 in 0.23 in 2.53 in (1980)
Month to date precipitation 2.26 3.02  
Year to date precipitation 17.19 22.29  
Since 1 July precipitation 34.82  
Snow  
Snow 0.00 in - - ()
Month to date snowfall 0.0  
Since 1 July snowfall 0.0  
Snow Depth 0.00 in    
Sea Level Pressure  
Sea Level Pressure 29.82 in    
Wind  
Wind Speed 10 mph (South)    
Max Wind Speed 21 mph    
Max Gust Speed 24 mph    
Visibility 9 miles    
Events Rain    
T = Trace of Precipitation, MM = Missing Value Source: NWS Daily Summary

Daily Weather History Graph

Daily Weather History Graph

Search for Another Location

Airport or City:

Trip Planner

Search our weather history database for the weather conditions in past years. The results will help you decide how hot, cold, wet, or windy it might be!

Date:

Astronomy

Mar. 13, 2012 Rise Set
Actual Time 7:31 AM PDT 7:21 PM PDT
Civil Twilight 7:03 AM PDT 7:49 PM PDT
Nautical Twilight 6:31 AM PDT 8:22 PM PDT
Astronomical Twilight 5:58 AM PDT 8:54 PM PDT
Moon 1:05 AM PDT (3/13) 10:43 AM PDT (3/13)
Length of Visible Light 12h 46m
Length of Day
11h 50m
Waning Gibbous, 64% of the Moon is Illuminated
Mar 13
Waning Gibbous
Mar 14
Last Quarter
Mar 22
New
Mar 30
First Quarter
Apr 6
Full

Hourly Weather History & Observations

Time (PDT) Temp. Windchill Dew Point Humidity Pressure Visibility Wind Dir Wind Speed Gust Speed Precip Events Conditions
12:23 AM 42.8 °F 35.8 °F 39.2 °F 87% 29.61 in 5.0 mi West 13.8 mph 23.0 mph 0.11 in Rain Rain
12:56 AM 44.1 °F 37.7 °F 41.0 °F 89% 29.64 in 6.0 mi WSW 12.7 mph - 0.21 in Rain Rain
1:20 AM 44.6 °F 37.4 °F 42.8 °F 93% 29.64 in 5.0 mi SW 16.1 mph 20.7 mph 0.09 in Rain Rain
1:56 AM 44.1 °F 36.5 °F 41.0 °F 89% 29.66 in 6.0 mi SW 17.3 mph 24.2 mph 0.23 in Rain Rain
2:56 AM 44.1 °F 37.1 °F 39.9 °F 85% 29.68 in 10.0 mi South 15.0 mph - 0.11 in Rain Light Rain
3:56 AM 44.1 °F 40.1 °F 41.0 °F 89% 29.71 in 10.0 mi SSW 6.9 mph - 0.00 in   Overcast
4:26 AM 42.8 °F 38.0 °F 39.2 °F 87% 29.71 in 10.0 mi South 8.1 mph - N/A   Overcast
4:56 AM 43.0 °F 39.5 °F 39.0 °F 86% 29.73 in 10.0 mi South 5.8 mph - N/A   Overcast
5:30 AM 42.8 °F 37.0 °F 39.2 °F 87% 29.74 in 7.0 mi SSE 10.4 mph - 0.00 in Rain Light Rain
5:56 AM 42.1 °F 36.1 °F 39.0 °F 89% 29.75 in 10.0 mi SE 10.4 mph - 0.03 in Rain Light Rain
6:03 AM 42.8 °F 37.0 °F 39.2 °F 87% 29.75 in 10.0 mi SE 10.4 mph - 0.00 in   Overcast
6:56 AM 41.0 °F 38.0 °F 39.0 °F 93% 29.77 in 10.0 mi ESE 4.6 mph - 0.00 in   Mostly Cloudy
7:56 AM 42.1 °F 34.9 °F 37.9 °F 85% 29.79 in 10.0 mi SSE 13.8 mph - 0.01 in   Overcast
8:56 AM 43.0 °F 36.4 °F 39.0 °F 86% 29.82 in 10.0 mi SSE 12.7 mph - N/A   Clear
9:56 AM 46.0 °F 39.0 °F 39.9 °F 79% 29.86 in 10.0 mi SSE 17.3 mph 21.9 mph N/A   Clear
10:56 AM 48.0 °F - 41.0 °F 77% 29.88 in 10.0 mi SSE 17.3 mph - N/A   Mostly Cloudy
11:56 AM 48.9 °F - 43.0 °F 80% 29.90 in 10.0 mi SSE 15.0 mph - N/A   Partly Cloudy
12:56 PM 51.8 °F - 44.6 °F 76% 29.90 in 10.0 mi South 17.3 mph - N/A   Mostly Cloudy
1:56 PM 50.0 °F - 41.0 °F 71% 29.91 in 10.0 mi South 13.8 mph - N/A   Mostly Cloudy
2:56 PM 48.0 °F - 42.1 °F 80% 29.92 in 10.0 mi SW 9.2 mph - N/A   Overcast
3:56 PM 48.0 °F - 37.9 °F 68% 29.92 in 10.0 mi South 6.9 mph - N/A   Overcast
4:56 PM 48.9 °F - 37.0 °F 64% 29.92 in 10.0 mi South 5.8 mph - N/A   Partly Cloudy
5:56 PM 48.0 °F - 37.9 °F 68% 29.93 in 10.0 mi South 5.8 mph - N/A   Clear
6:56 PM 46.9 °F - 39.0 °F 74% 29.93 in 10.0 mi SSE 5.8 mph - N/A   Clear
7:56 PM 46.0 °F 42.5 °F 39.9 °F 79% 29.93 in 10.0 mi SE 6.9 mph - N/A   Mostly Cloudy
8:56 PM 46.9 °F - 41.0 °F 80% 29.93 in 10.0 mi SE 6.9 mph - N/A   Mostly Cloudy
9:56 PM 46.9 °F - 39.9 °F 77% 29.93 in 10.0 mi SE 10.4 mph - N/A   Overcast
10:56 PM 44.6 °F 40.2 °F 39.2 °F 81% 29.94 in 10.0 mi SSW 8.1 mph - N/A   Overcast
11:56 PM 45.0 °F 38.5 °F 39.0 °F 80% 29.93 in 10.0 mi SE 13.8 mph 20.7 mph 0.01 in   Mostly Cloudy